period_start,C,m1,H,J0,J1,J2,J3,J4,J5,JA,JB,JC,JD,JJ,JK,JN,#
2017-03-23 00:00:09,0.18,9.32,0.00,23.46,27.20,30.88,14.63,51.08,1021.01,2025.95,1319.40,1528.88,1724.95,600.23,597.92,32.37,0000 0000 0000 0000 000000
2017-03-23 00:05:10,0.19,9.33,0.00,23.44,27.20,30.88,14.62,51.03,1021.01,2025.96,1318.10,1528.02,1723.97,600.05,597.77,32.42,0000 0000 0000 0000 000000
2017-03-23 00:10:12,0.23,9.34,0.00,23.46,27.20,30.88,14.66,51.08,1021.01,2025.96,1316.80,1527.14,1722.95,600.24,597.85,32.47,0000 0000 0000 0000 000000
2017-03-23 00:15:13,0.21,9.35,0.00,23.49,27.21,30.85,14.59,50.92,1021.01,2025.94,1315.57,1526.27,1721.92,600.16,597.78,32.52,0000 0000 0000 0000 000000
2017-03-23 00:20:15,0.19,9.36,0.00,23.46,27.22,30.90,14.54,51.02,1021.01,2025.93,1314.44,1525.51,1720.95,599.63,597.32,32.57,0000 0000 0000 0000 000000
2017-03-23 00:25:16,0.16,9.37,0.00,23.45,27.22,30.91,14.58,50.88,1021.01,2025.93,1313.26,1524.79,1720.06,599.83,597.63,32.62,0000 0000 0000 0000 000000
2017-03-23 00:30:17,0.16,9.38,0.00,23.48,27.22,30.89,14.62,50.98,1021.00,2025.97,1312.13,1524.01,1719.18,599.84,597.49,32.67,0000 0000 0000 0000 000000
2017-03-23 00:35:18,0.19,9.39,0.00,23.46,27.22,30.90,14.63,51.13,1020.62,2025.94,1311.03,1523.19,1718.23,599.49,596.96,32.72,0000 0000 0000 0000 000000
2017-03-23 00:40:20,0.22,9.39,0.00,23.38,27.22,30.90,14.63,51.25,1020.52,2025.91,1309.80,1522.36,1717.29,600.30,597.75,32.77,0000 0000 0000 0000 000000
2017-03-23 00:45:21,0.19,9.40,0.00,23.40,27.23,30.97,14.58,51.23,1020.44,2025.88,1308.60,1521.59,1716.32,599.62,597.08,32.82,0000 0000 0000 0000 000000
2017-03-23 00:50:22,0.15,9.41,0.00,23.41,27.24,30.92,14.58,51.24,1020.05,2025.76,1307.41,1520.80,1715.30,599.84,597.09,32.87,0000 0000 0000 0000 000000
2017-03-23 00:55:23,0.18,9.42,0.00,23.38,27.25,30.90,14.54,51.29,1020.04,2025.69,1306.18,1519.98,1714.33,599.75,597.07,32.92,0000 0000 0000 0000 000000
2017-03-23 01:00:25,0.22,9.43,0.00,23.38,27.25,30.89,14.59,51.28,1020.00,2025.72,1304.82,1519.08,1713.31,599.68,596.92,32.97,0000 0000 0000 0000 000000
2017-03-23 01:05:26,0.21,9.45,0.00,23.43,27.25,30.90,14.59,51.27,1019.64,2025.71,1303.50,1518.11,1712.22,600.16,597.11,33.02,0000 0000 0000 0000 000000
2017-03-23 01:10:27,0.20,9.46,0.00,23.41,27.25,30.91,14.57,51.27,1019.55,2025.62,1302.14,1517.25,1711.19,600.05,596.96,33.07,0000 0000 0000 0000 000000
2017-03-23 01:15:29,0.22,9.47,0.00,23.40,27.25,30.94,14.61,51.42,1019.35,2025.49,1300.67,1516.33,1710.09,600.10,596.87,33.12,0000 0000 0000 0000 000000
2017-03-23 01:20:30,0.24,9.48,0.00,23.42,27.25,30.96,14.65,51.48,1019.10,2025.70,1299.43,1515.49,1709.02,600.23,596.90,33.17,0000 0000 0000 0000 000000
2017-03-23 01:25:31,0.23,9.49,0.00,23.44,27.25,30.94,14.62,51.48,1019.06,2025.70,1297.97,1514.44,1707.87,600.23,596.74,33.22,0000 0000 0000 0000 000000
2017-03-23 01:30:33,0.21,9.50,0.00,23.43,27.25,30.93,14.66,51.48,1019.06,2025.57,1296.63,1513.54,1706.78,599.79,596.38,33.27,0000 0000 0000 0000 000000
2017-03-23 01:35:34,0.18,9.51,0.00,23.41,27.25,30.95,14.62,51.42,1019.07,2025.48,1295.43,1512.73,1705.78,600.10,596.72,33.32,0000 0000 0000 0000 000000
2017-03-23 01:40:36,0.12,9.52,0.00,23.43,27.25,30.91,14.62,51.24,1019.13,2025.21,1294.22,1511.92,1704.80,599.84,596.57,33.38,0000 0000 0000 0000 000000
2017-03-23 01:45:37,0.20,9.53,0.00,23.45,27.26,30.93,14.62,51.30,1019.43,2025.29,1293.08,1511.07,1703.89,599.99,596.78,33.43,0000 0000 0000 0000 000000
2017-03-23 01:50:38,0.22,9.54,0.00,23.43,27.27,30.93,14.56,51.47,1019.53,2025.33,1291.96,1510.25,1702.95,599.61,596.54,33.48,0000 0000 0000 0000 000000
2017-03-23 01:55:39,0.20,9.55,0.00,23.45,27.27,30.94,14.58,51.61,1019.55,2025.41,1290.78,1509.56,1702.02,599.82,596.66,33.53,0000 0000 0000 0000 000000
2017-03-23 02:00:40,0.16,9.56,0.00,23.48,27.27,30.94,14.58,51.61,1019.54,2025.25,1289.61,1508.69,1701.03,600.18,597.09,33.58,0000 0000 0000 0000 000000
2017-03-23 02:05:42,0.18,9.57,0.00,23.46,27.27,30.94,14.55,51.59,1019.50,2025.21,1288.46,1507.95,1700.06,599.93,596.74,33.63,0000 0000 0000 0000 000000
2017-03-23 02:10:43,0.19,9.58,0.00,23.45,27.27,30.91,14.61,51.50,1019.32,2025.21,1287.36,1507.09,1699.17,600.09,596.87,33.68,0000 0000 0000 0000 000000
2017-03-23 02:15:44,0.21,9.59,0.00,23.48,27.27,30.93,14.60,51.48,1019.38,2025.30,1286.21,1506.33,1698.24,600.02,596.70,33.73,0000 0000 0000 0000 000000
2017-03-23 02:20:46,0.17,9.60,0.00,23.48,27.28,30.94,14.57,51.50,1019.43,2025.18,1284.95,1505.48,1697.25,599.88,596.54,33.78,0000 0000 0000 0000 000000
2017-03-23 02:25:47,0.21,9.61,0.00,23.46,27.30,30.92,14.61,51.38,1019.50,2025.08,1283.75,1504.64,1696.25,599.80,596.63,33.83,0000 0000 0000 0000 000000
2017-03-23 02:30:49,0.19,9.62,0.00,23.47,27.30,30.96,14.58,51.30,1019.09,2025.04,1282.50,1503.80,1695.17,600.45,596.95,33.88,0000 0000 0000 0000 000000
2017-03-23 02:35:50,0.21,9.63,0.00,23.52,27.30,30.96,14.55,51.33,1019.05,2025.03,1281.23,1502.82,1694.01,599.60,596.07,33.93,0000 0000 0000 0000 000000
2017-03-23 02:40:51,0.21,9.64,0.00,23.52,27.30,30.99,14.59,51.27,1018.98,2025.01,1279.86,1501.89,1692.95,599.92,596.31,33.98,0000 0000 0000 0000 000000
2017-03-23 02:45:53,0.22,9.65,0.00,23.52,27.32,30.96,14.64,51.24,1019.02,2025.00,1278.67,1500.97,1691.89,600.38,596.78,34.03,0000 0000 0000 0000 000000
2017-03-23 02:50:54,0.22,9.66,0.00,23.55,27.32,30.99,14.51,51.25,1019.08,2025.00,1277.41,1500.07,1690.84,599.64,596.03,34.08,0000 0000 0000 0000 000000
2017-03-23 02:55:55,0.21,9.68,0.00,23.56,27.32,31.00,14.59,51.23,1019.31,2025.00,1276.16,1499.15,1689.76,599.83,596.32,34.13,0000 0000 0000 0000 000000
2017-03-23 03:00:56,0.25,9.69,0.00,23.55,27.33,31.00,14.58,51.13,1019.35,2025.00,1274.73,1498.23,1688.72,600.16,596.70,34.18,0000 0000 0000 0000 000000
2017-03-23 03:05:58,0.22,9.70,0.00,23.60,27.35,31.04,14.55,51.31,1019.09,2025.00,1273.39,1497.33,1687.66,599.56,595.72,34.23,0000 0000 0000 0000 000000
2017-03-23 03:10:59,0.20,9.71,0.00,23.64,27.35,31.04,14.59,51.41,1019.06,2025.00,1272.20,1496.46,1686.63,600.03,596.16,34.28,0000 0000 0000 0000 000000
2017-03-23 03:16:00,0.22,9.72,0.00,23.61,27.35,31.00,14.60,51.42,1019.01,2025.00,1270.87,1495.64,1685.58,599.84,595.94,34.34,0000 0000 0000 0000 000000
2017-03-23 03:21:02,0.21,9.73,0.00,23.64,27.37,31.05,14.62,51.62,1018.82,2025.00,1269.65,1494.72,1684.52,599.53,595.64,34.39,0000 0000 0000 0000 000000
2017-03-23 03:26:03,0.20,9.74,0.00,23.68,27.37,31.04,14.60,51.42,1018.79,2024.99,1268.41,1493.82,1683.45,600.32,596.24,34.44,0000 0000 0000 0000 000000
2017-03-23 03:31:04,0.20,9.75,0.00,23.66,27.39,31.05,14.64,51.58,1018.90,2024.99,1267.08,1492.93,1682.45,600.30,596.28,34.49,0000 0000 0000 0000 000000
2017-03-23 03:36:06,0.24,9.76,0.00,23.67,27.40,31.05,14.61,51.56,1018.79,2024.99,1265.69,1492.04,1681.40,599.94,595.82,34.54,0000 0000 0000 0000 000000
2017-03-23 03:41:07,0.21,9.78,0.00,23.72,27.40,31.02,14.60,51.67,1018.69,2024.98,1264.50,1491.12,1680.37,600.16,595.84,34.59,0000 0000 0000 0000 000000
2017-03-23 03:46:08,0.21,9.79,0.00,23.70,27.42,31.04,14.59,51.65,1018.64,2024.97,1263.20,1490.20,1679.31,600.17,596.08,34.64,0000 0000 0000 0000 000000
2017-03-23 03:51:10,0.24,9.80,0.00,23.69,27.42,31.07,14.62,51.55,1018.60,2024.98,1261.81,1489.34,1678.24,600.52,596.37,34.69,0000 0000 0000 0000 000000
2017-03-23 03:56:11,0.22,9.81,0.00,23.73,27.43,31.11,14.59,51.38,1018.57,2024.96,1260.54,1488.46,1677.20,600.10,595.69,34.74,0000 0000 0000 0000 000000
2017-03-23 04:01:12,0.18,9.82,0.00,23.71,27.45,31.12,14.56,51.48,1018.37,2024.96,1259.37,1487.68,1676.22,599.98,595.67,34.79,0000 0000 0000 0000 000000
2017-03-23 04:06:14,0.18,9.83,0.00,23.71,27.45,31.17,14.59,51.49,1018.09,2024.95,1258.20,1486.91,1675.22,599.81,595.28,34.84,0000 0000 0000 0000 000000
2017-03-23 04:11:15,0.19,9.84,0.00,23.71,27.46,31.29,14.65,51.62,1018.08,2024.92,1256.99,1486.05,1674.28,600.27,595.74,34.89,0000 0000 0000 0000 000000
2017-03-23 04:16:16,0.21,9.85,0.00,23.74,27.47,31.28,14.67,51.58,1018.08,2024.76,1255.78,1485.17,1673.31,600.27,595.68,34.94,0000 0000 0000 0000 000000
2017-03-23 04:21:17,0.18,9.86,0.00,23.75,27.48,31.28,14.52,51.38,1018.08,2024.44,1254.56,1484.27,1672.28,599.82,595.24,34.99,0000 0000 0000 0000 000000
2017-03-23 04:26:19,0.18,9.87,0.00,23.75,27.50,31.29,14.50,51.23,1018.08,2024.27,1253.22,1483.51,1671.29,599.95,595.29,35.04,0000 0000 0000 0000 000000
2017-03-23 04:31:20,0.23,9.88,0.00,23.78,27.50,31.33,14.60,51.18,1018.08,2024.19,1251.80,1482.70,1670.27,600.02,595.34,35.09,0000 0000 0000 0000 000000
2017-03-23 04:36:21,0.20,9.89,0.00,23.79,27.51,31.30,14.55,51.17,1018.08,2024.05,1250.56,1481.78,1669.22,599.78,595.06,35.15,0000 0000 0000 0000 000000
2017-03-23 04:41:22,0.20,9.90,0.00,23.81,27.52,31.30,14.50,51.10,1018.06,2024.02,1249.29,1480.86,1668.13,599.92,595.28,35.20,0000 0000 0000 0000 000000
2017-03-23 04:46:23,0.21,9.91,0.00,23.81,27.52,31.33,14.56,51.08,1017.76,2024.03,1247.97,1479.93,1667.00,599.68,594.78,35.25,0000 0000 0000 0000 000000
2017-03-23 04:51:24,0.27,9.92,0.00,23.85,27.54,31.32,14.57,51.23,1017.61,2024.03,1246.57,1478.98,1665.88,600.01,594.92,35.30,0000 0000 0000 0000 000000
2017-03-23 04:56:25,0.23,9.94,0.00,23.87,27.55,31.36,14.61,51.30,1017.56,2024.00,1245.11,1478.01,1664.78,599.94,594.79,35.35,0000 0000 0000 0000 000000
2017-03-23 05:01:26,0.25,9.95,0.00,24.24,27.56,31.27,14.54,51.52,1017.16,2024.00,1243.83,1477.02,1663.60,599.92,593.71,35.40,0000 0000 0000 0000 000000
2017-03-23 05:06:28,0.26,9.96,0.00,24.25,27.57,31.16,14.53,51.86,1017.10,2024.00,1242.50,1475.93,1662.50,600.18,593.99,35.45,0000 0000 0000 0000 000000
2017-03-23 05:11:29,0.29,9.98,0.00,24.31,27.60,31.21,14.50,51.91,1016.87,2024.00,1240.86,1474.78,1661.11,599.79,593.39,35.50,0000 0000 0000 0000 000000
2017-03-23 05:16:30,0.29,9.99,0.00,24.19,27.61,31.40,14.63,52.41,1016.62,2024.00,1239.38,1473.63,1659.80,600.31,594.04,35.55,0000 0000 0000 0000 000000
2017-03-23 05:21:31,0.31,10.01,0.00,24.05,27.62,31.38,14.53,52.16,1016.61,2024.00,1237.68,1472.31,1658.28,599.83,593.71,35.60,0000 0000 0000 0000 000000
2017-03-23 05:26:32,0.28,10.02,0.00,23.98,27.61,31.29,14.53,52.21,1016.61,2024.00,1235.96,1471.24,1656.83,599.85,593.92,35.65,0000 0000 0000 0000 000000
2017-03-23 05:31:33,0.29,10.04,0.00,23.90,27.60,31.22,14.58,51.92,1016.62,2023.99,1234.25,1470.19,1655.55,600.45,594.69,35.70,0000 0000 0000 0000 000000
2017-03-23 05:36:35,0.28,10.05,0.00,23.85,27.59,31.13,14.46,51.91,1016.62,2023.99,1232.60,1469.14,1654.32,599.59,593.93,35.75,0000 0000 0000 0000 000000
2017-03-23 05:41:36,0.25,10.06,0.00,23.82,27.57,31.09,14.59,51.79,1016.62,2023.99,1231.07,1468.08,1653.03,600.18,594.53,35.80,0000 0000 0000 0000 000000
2017-03-23 05:46:38,0.28,10.08,0.00,23.81,27.55,31.09,14.50,51.69,1016.67,2024.00,1229.58,1467.02,1651.80,599.78,594.41,35.85,0000 0000 0000 0000 000000
2017-03-23 05:51:39,0.25,10.09,0.00,23.78,27.54,31.08,14.56,51.50,1016.85,2024.00,1228.18,1465.97,1650.63,600.13,594.72,35.90,0000 0000 0000 0000 000000
2017-03-23 05:56:41,0.28,10.10,0.00,23.73,27.52,31.06,14.58,51.48,1016.77,2024.00,1226.60,1464.93,1649.44,599.85,594.60,35.95,0000 0000 0000 0000 000000
2017-03-23 06:01:42,0.24,10.12,0.00,23.74,27.50,31.07,14.55,51.55,1016.65,2024.02,1225.09,1463.96,1648.28,599.73,594.38,36.00,0000 0000 0000 0000 000000
2017-03-23 06:06:43,0.29,10.13,0.00,23.77,27.50,31.09,14.57,51.88,1016.62,2024.09,1223.58,1462.96,1647.04,599.91,594.54,36.05,0000 0000 0000 0000 000000
2017-03-23 06:11:45,0.27,10.15,0.00,23.73,27.47,31.08,14.48,52.00,1016.32,2024.13,1222.07,1461.90,1645.79,599.63,594.02,36.10,0000 0000 0000 0000 000000
2017-03-23 06:16:46,0.31,10.16,0.00,23.70,27.47,31.11,14.50,51.93,1016.14,2024.21,1220.51,1460.81,1644.53,599.80,594.21,36.16,0000 0000 0000 0000 000000
2017-03-23 06:21:47,0.26,10.18,0.00,23.71,27.47,31.10,14.55,51.88,1016.13,2024.24,1219.11,1459.76,1643.35,600.06,594.41,36.21,0000 0000 0000 0000 000000
2017-03-23 06:26:49,0.27,10.19,0.00,23.73,27.45,31.09,14.54,52.03,1016.13,2024.42,1217.77,1458.74,1642.14,600.02,594.35,36.26,0000 0000 0000 0000 000000
2017-03-23 06:31:50,0.29,10.20,0.00,23.70,27.45,31.13,14.50,51.92,1016.13,2024.52,1216.28,1457.70,1640.92,600.22,594.58,36.31,0000 0000 0000 0000 000000
2017-03-23 06:36:51,0.22,10.22,0.00,23.66,27.45,31.17,14.56,52.14,1016.13,2024.56,1215.01,1456.69,1639.74,599.96,594.30,36.36,0000 0000 0000 0000 000000
2017-03-23 06:41:53,0.22,10.23,0.00,23.67,27.45,31.14,14.59,51.88,1016.13,2024.39,1213.86,1455.74,1638.60,600.29,594.66,36.41,0000 0000 0000 0000 000000
2017-03-23 06:46:54,0.27,10.24,0.00,23.68,27.45,31.16,14.48,51.96,1016.14,2024.56,1212.60,1454.76,1637.50,599.26,593.66,36.46,0000 0000 0000 0000 000000
2017-03-23 06:51:55,0.18,10.25,0.00,23.65,27.45,31.15,14.57,52.00,1016.16,2024.36,1211.35,1453.83,1636.42,599.96,594.39,36.51,0000 0000 0000 0000 000000
2017-03-23 06:56:57,0.19,10.26,0.00,23.65,27.45,31.16,14.59,51.77,1016.16,2024.24,1210.07,1452.98,1635.40,600.18,594.54,36.56,0000 0000 0000 0000 000000
2017-03-23 07:01:58,0.21,10.27,0.00,23.68,27.45,31.14,14.57,51.88,1016.14,2024.24,1208.96,1452.12,1634.47,600.07,594.48,36.61,0000 0000 0000 0000 000000
2017-03-23 07:06:59,0.21,10.28,0.00,23.67,27.45,31.16,14.56,51.78,1016.18,2024.22,1207.87,1451.34,1633.54,599.98,594.37,36.66,0000 0000 0000 0000 000000
2017-03-23 07:12:01,0.21,10.29,0.00,23.64,27.45,31.20,14.53,51.65,1016.33,2024.15,1206.69,1450.56,1632.59,600.15,594.77,36.71,0000 0000 0000 0000 000000
2017-03-23 07:17:02,0.17,10.30,0.00,23.66,27.45,31.20,14.57,51.63,1016.48,2024.13,1205.61,1449.80,1631.71,600.00,594.52,36.76,0000 0000 0000 0000 000000
2017-03-23 07:22:03,0.24,10.32,0.00,23.70,27.45,31.16,14.52,51.62,1016.28,2024.43,1204.49,1449.03,1630.81,599.97,594.54,36.81,0000 0000 0000 0000 000000
2017-03-23 07:27:05,0.20,10.33,0.00,23.68,27.45,31.20,14.59,51.55,1016.18,2024.35,1203.47,1448.23,1629.91,600.20,594.59,36.86,0000 0000 0000 0000 000000
2017-03-23 07:32:06,0.21,10.34,0.00,23.62,27.45,31.21,14.64,51.86,1016.15,2024.46,1202.38,1447.53,1629.00,600.25,594.81,36.91,0000 0000 0000 0000 000000
2017-03-23 07:37:08,0.15,10.35,0.00,23.64,27.45,31.21,14.66,51.76,1016.14,2024.28,1201.21,1446.72,1628.03,600.41,594.92,36.97,0000 0000 0000 0000 000000
2017-03-23 07:42:09,0.19,10.36,0.00,23.69,27.45,31.22,14.60,51.68,1016.14,2024.25,1200.12,1445.91,1627.06,599.86,594.27,37.02,0000 0000 0000 0000 000000
2017-03-23 07:47:10,0.23,10.37,0.00,23.67,27.45,31.25,14.56,51.67,1016.13,2024.29,1198.92,1445.04,1626.09,600.16,594.47,37.07,0000 0000 0000 0000 000000
2017-03-23 07:52:11,0.27,10.38,0.00,23.63,27.45,31.21,14.59,51.74,1016.13,2024.38,1197.63,1444.17,1625.11,599.74,594.26,37.12,0000 0000 0000 0000 000000
2017-03-23 07:57:13,0.23,10.39,0.00,23.65,27.45,31.21,14.47,51.68,1016.13,2024.50,1196.39,1443.31,1624.11,599.63,594.02,37.17,0000 0000 0000 0000 000000
2017-03-23 08:02:14,0.26,10.41,0.00,23.67,27.45,31.21,14.55,51.91,1016.12,2024.63,1195.12,1442.43,1623.08,599.73,594.13,37.22,0000 0000 0000 0000 000000
2017-03-23 08:07:15,0.21,10.42,0.00,23.63,27.45,31.22,14.58,51.77,1016.13,2024.42,1193.83,1441.51,1621.94,600.01,594.48,37.27,0000 0000 0000 0000 000000
2017-03-23 08:12:17,0.27,10.42,0.00,23.59,27.45,31.22,14.54,51.87,1016.13,2024.32,1192.54,1440.59,1620.85,600.01,594.68,37.32,0000 0000 0000 0000 000000
2017-03-23 08:17:17,0.24,10.44,0.00,23.61,27.45,31.22,14.53,51.67,1016.13,2024.45,1191.23,1439.63,1619.76,600.08,594.58,37.37,0000 0000 0000 0000 000000
2017-03-23 08:22:19,0.28,10.45,0.00,23.63,27.45,31.24,14.60,51.54,1016.13,2024.52,1189.88,1438.64,1618.67,600.25,594.74,37.42,0000 0000 0000 0000 000000
2017-03-23 08:27:20,0.23,10.47,0.00,23.60,27.45,31.22,14.54,51.61,1016.13,2024.59,1188.57,1437.72,1617.57,600.11,594.66,37.47,0000 0000 0000 0000 000000
2017-03-23 08:32:21,0.24,10.48,0.00,23.61,27.45,31.23,14.58,51.58,1016.14,2024.51,1187.20,1436.78,1616.46,599.84,594.34,37.52,0000 0000 0000 0000 000000
2017-03-23 08:37:23,0.23,10.49,0.00,23.66,27.45,31.21,14.54,51.53,1016.13,2024.45,1185.87,1435.79,1615.38,599.94,594.31,37.57,0000 0000 0000 0000 000000
2017-03-23 08:42:24,0.24,10.50,0.00,23.64,27.45,31.24,14.66,51.63,1016.13,2024.20,1184.55,1434.76,1614.16,600.22,594.64,37.62,0000 0000 0000 0000 000000
2017-03-23 08:47:25,0.22,10.52,0.00,23.61,27.45,31.22,14.52,51.59,1016.13,2024.20,1183.16,1433.78,1613.02,599.73,594.26,37.67,0000 0000 0000 0000 000000
2017-03-23 08:52:27,0.26,10.53,0.00,23.63,27.45,31.22,14.56,51.52,1016.13,2024.12,1181.80,1432.82,1611.90,600.03,594.50,37.72,0000 0000 0000 0000 000000
2017-03-23 08:57:28,0.23,10.54,0.00,23.66,27.45,31.21,14.54,51.39,1016.13,2024.09,1180.54,1431.89,1610.81,600.11,594.46,37.77,0000 0000 0000 0000 000000
2017-03-23 09:02:29,0.22,10.55,0.00,23.64,27.45,31.26,14.58,51.48,1016.13,2024.17,1179.42,1430.97,1609.75,599.99,594.36,37.82,0000 0000 0000 0000 000000
2017-03-23 09:07:30,0.24,10.57,0.00,23.59,27.45,31.24,14.58,51.45,1016.13,2024.06,1178.04,1430.05,1608.65,600.10,594.76,37.87,0000 0000 0000 0000 000000
2017-03-23 09:12:32,0.25,10.58,0.00,23.63,27.45,31.22,14.56,51.37,1016.13,2024.08,1176.78,1429.15,1607.68,600.20,594.76,37.92,0000 0000 0000 0000 000000
2017-03-23 09:17:33,0.24,10.59,0.00,23.67,27.45,31.22,14.58,51.42,1016.13,2024.11,1175.62,1428.31,1606.66,599.67,594.11,37.98,0000 0000 0000 0000 000000
2017-03-23 09:22:34,0.24,10.60,0.00,23.63,27.45,31.24,14.61,51.53,1016.13,2024.12,1174.44,1427.46,1605.66,600.22,594.67,38.03,0000 0000 0000 0000 000000
2017-03-23 09:27:35,0.23,10.61,0.00,23.61,27.45,31.21,14.55,51.49,1016.09,2024.17,1173.13,1426.61,1604.64,600.16,594.72,38.08,0000 0000 0000 0000 000000
2017-03-23 09:32:37,0.20,10.62,0.00,23.63,27.45,31.25,14.57,51.52,1016.04,2024.11,1171.91,1425.76,1603.61,599.85,594.22,38.13,0000 0000 0000 0000 000000
2017-03-23 09:37:38,0.23,10.64,0.00,23.63,27.45,31.22,14.58,51.41,1016.08,2024.05,1170.70,1424.88,1602.61,599.99,594.35,38.18,0000 0000 0000 0000 000000
2017-03-23 09:42:39,0.23,10.65,0.00,23.59,27.45,31.25,14.59,51.38,1015.98,2024.06,1169.46,1424.03,1601.58,600.12,594.58,38.23,0000 0000 0000 0000 000000
2017-03-23 09:47:40,0.24,10.66,0.00,23.63,27.45,31.25,14.51,51.22,1015.90,2024.04,1168.16,1423.11,1600.54,599.70,594.09,38.28,0000 0000 0000 0000 000000
2017-03-23 09:52:41,0.25,10.67,0.00,23.66,27.45,31.25,14.56,51.32,1015.86,2024.02,1166.82,1422.17,1599.47,600.39,594.60,38.33,0000 0000 0000 0000 000000
2017-03-23 09:57:43,0.24,10.68,0.00,23.63,27.45,31.25,14.54,51.13,1015.97,2024.03,1165.58,1421.32,1598.62,599.98,594.41,38.38,0000 0000 0000 0000 000000
2017-03-23 10:02:44,0.24,10.70,0.00,23.64,27.46,31.23,14.57,51.18,1015.98,2024.04,1164.36,1420.41,1597.58,599.99,594.37,38.43,0000 0000 0000 0000 000000
2017-03-23 10:07:45,0.24,10.71,0.00,23.70,27.47,31.25,14.46,51.04,1016.05,2024.02,1163.03,1419.46,1596.49,599.60,593.96,38.48,0000 0000 0000 0000 000000
2017-03-23 10:12:46,0.25,10.72,0.00,23.70,27.47,31.27,14.66,51.21,1016.09,2024.02,1161.74,1418.56,1595.43,600.65,594.94,38.53,0000 0000 0000 0000 000000
2017-03-23 10:17:48,0.25,10.74,0.00,23.67,27.47,31.27,14.55,51.15,1016.12,2024.02,1160.43,1417.64,1594.35,600.49,594.81,38.58,0000 0000 0000 0000 000000
2017-03-23 10:22:49,0.23,10.75,0.00,23.69,27.47,31.28,14.51,51.01,1016.13,2024.00,1159.11,1416.70,1593.26,600.11,594.47,38.63,0000 0000 0000 0000 000000
2017-03-23 10:27:51,0.26,10.76,0.00,23.74,27.47,31.26,14.60,50.95,1016.12,2024.00,1157.77,1415.78,1592.16,600.45,594.64,38.68,0000 0000 0000 0000 000000
2017-03-23 10:32:52,0.24,10.77,0.00,23.72,27.48,31.26,14.52,51.05,1016.11,2024.01,1156.49,1414.86,1591.08,600.03,594.24,38.73,0000 0000 0000 0000 000000
2017-03-23 10:37:53,0.26,10.79,0.00,23.76,27.50,31.29,14.53,51.05,1016.08,2024.01,1155.08,1413.89,1589.92,600.12,594.36,38.78,0000 0000 0000 0000 000000
2017-03-23 10:42:55,0.29,10.80,0.00,23.80,27.50,31.31,14.60,51.10,1016.06,2024.00,1153.66,1412.90,1588.76,600.11,594.21,38.83,0000 0000 0000 0000 000000
2017-03-23 10:47:56,0.25,10.82,0.00,23.79,27.50,31.29,14.53,51.13,1015.98,2024.00,1152.30,1411.93,1587.69,600.12,594.16,38.89,0000 0000 0000 0000 000000
2017-03-23 10:52:58,0.28,10.83,0.00,23.77,27.51,31.32,14.55,51.17,1015.81,2024.00,1150.86,1410.90,1586.51,600.10,594.08,38.94,0000 0000 0000 0000 000000
2017-03-23 10:57:59,0.27,10.84,0.00,23.82,27.52,31.33,14.56,51.17,1015.73,2024.00,1149.54,1409.90,1585.32,600.43,594.19,38.99,0000 0000 0000 0000 000000
2017-03-23 11:03:00,0.24,10.86,0.00,23.90,27.53,31.34,14.48,50.98,1015.74,2024.00,1148.25,1408.92,1584.21,599.87,593.54,39.04,0000 0000 0000 0000 000000
2017-03-23 11:08:01,0.23,10.87,0.00,24.34,27.55,31.24,14.45,50.94,1015.85,2024.00,1146.98,1407.99,1583.05,599.90,592.81,39.09,0000 0000 0000 0000 000000
2017-03-23 11:13:02,0.30,10.88,0.00,24.17,27.56,31.17,14.49,51.14,1015.92,2023.99,1145.59,1407.04,1581.88,599.88,593.04,39.14,0000 0000 0000 0000 000000
2017-03-23 11:18:03,0.25,10.90,0.00,24.30,27.57,31.27,14.47,51.17,1015.91,2023.99,1144.15,1406.09,1580.75,599.98,592.93,39.19,0000 0000 0000 0000 000000
2017-03-23 11:23:05,0.29,10.91,0.00,24.23,27.60,31.38,14.58,51.34,1015.76,2023.97,1142.76,1405.13,1579.60,600.24,593.27,39.24,0000 0000 0000 0000 000000
2017-03-23 11:28:06,0.25,10.93,0.00,24.06,27.60,31.42,14.64,51.14,1015.70,2023.95,1141.45,1404.16,1578.50,600.09,593.35,39.29,0000 0000 0000 0000 000000
2017-03-23 11:33:07,0.24,10.94,0.00,23.99,27.60,31.34,14.51,51.08,1015.66,2023.97,1140.12,1403.28,1577.49,599.69,593.19,39.34,0000 0000 0000 0000 000000
2017-03-23 11:38:09,0.28,10.95,0.00,23.95,27.60,31.23,14.53,51.20,1015.65,2023.98,1138.77,1402.39,1576.41,600.19,593.77,39.39,0000 0000 0000 0000 000000
2017-03-23 11:43:10,0.25,10.96,0.00,23.90,27.58,31.16,14.53,51.20,1015.64,2023.98,1137.48,1401.50,1575.36,600.16,593.83,39.44,0000 0000 0000 0000 000000
2017-03-23 11:48:11,0.24,10.98,0.00,23.87,27.57,31.15,14.55,51.09,1015.64,2023.99,1136.15,1400.60,1574.28,599.95,593.63,39.49,0000 0000 0000 0000 000000
2017-03-23 11:53:13,0.26,10.99,0.00,23.87,27.56,31.15,14.49,51.11,1015.64,2023.99,1134.82,1399.71,1573.18,599.89,593.59,39.54,0000 0000 0000 0000 000000
2017-03-23 11:58:14,0.24,11.00,0.00,23.86,27.55,31.13,14.57,51.16,1015.64,2023.99,1133.56,1398.82,1572.20,600.31,593.94,39.59,0000 0000 0000 0000 000000
2017-03-23 12:03:16,0.23,11.02,0.00,23.83,27.54,31.13,14.55,51.30,1015.58,2023.99,1132.35,1397.95,1571.17,599.86,593.67,39.64,0000 0000 0000 0000 000000
2017-03-23 12:08:17,0.23,11.03,0.00,23.86,27.52,31.12,14.55,51.31,1015.35,2023.99,1131.08,1397.07,1570.16,600.22,593.79,39.69,0000 0000 0000 0000 000000
2017-03-23 12:13:19,0.25,11.04,0.00,23.85,27.52,31.14,14.43,51.33,1015.24,2023.99,1129.89,1396.17,1569.15,599.92,593.38,39.75,0000 0000 0000 0000 000000
2017-03-23 12:18:20,0.27,11.05,0.00,23.82,27.52,31.17,14.56,51.45,1015.20,2023.99,1128.67,1395.30,1568.11,600.14,593.66,39.80,0000 0000 0000 0000 000000
2017-03-23 12:23:21,0.25,11.07,0.00,23.84,27.52,31.19,14.53,51.28,1015.16,2023.99,1127.47,1394.36,1567.04,599.98,593.54,39.85,0000 0000 0000 0000 000000
2017-03-23 12:28:23,0.23,11.08,0.00,23.88,27.51,31.24,14.55,51.25,1015.15,2023.99,1126.31,1393.52,1566.02,600.00,593.47,39.90,0000 0000 0000 0000 000000
2017-03-23 12:33:24,0.21,11.09,0.00,23.85,27.52,31.26,14.54,51.45,1015.15,2023.99,1125.06,1392.69,1565.00,600.22,593.62,39.95,0000 0000 0000 0000 000000
2017-03-23 12:38:25,0.34,11.10,0.00,23.85,27.52,31.26,14.47,51.38,1015.15,2023.99,1123.65,1391.64,1563.80,599.84,593.30,40.00,0000 0000 0000 0000 000000
2017-03-23 12:43:27,0.25,11.12,0.00,23.91,27.52,31.29,14.49,51.38,1015.15,2023.99,1122.32,1390.67,1562.68,599.68,593.14,40.05,0000 0000 0000 0000 000000
2017-03-23 12:48:28,0.27,11.13,0.00,23.92,27.52,31.29,14.54,51.39,1015.15,2023.99,1120.99,1389.67,1561.48,600.17,593.59,40.10,0000 0000 0000 0000 000000